This demonstration page uses our WeatherBlox Daily Observations layout. Learn more.

Left ArrowRight Arrow

31.31129, -92.44514

Hourly Observations for November 26, 2022

Temp ( °F °C ) Dew Point ( °F °C ) Humidity (%) Winds ( mph kmh ) Pressure ( in mb ) Visibility ( mi km ) Precip ( " mm )
12:53 am 00:53 Cloudy with Mist and Fog 60 15.6 57 13.9 90 90 ENE 5 7 30.03 1017 5 8 0.00 0.00
1:53 am 01:53 Cloudy with Mist and Fog 61 16.1 58 14.4 90 90 ENE 5 7 30.03 1017 6 10 0.00 0.00
2:09 am 02:09 Cloudy with Mist and Fog 60 15.6 58 14.4 93 93 ENE 6 9 30.00 1016 3 4 0.00 0.00
2:43 am 02:43 Cloudy with Mist and Fog 60 15.6 58 14.4 93 93 E 3 6 30.00 1016 3 5 0.00 0.00
2:53 am 02:53 Cloudy with Mist and Fog 60 15.6 58 14.4 93 93 ENE 5 7 30.00 1016 3 5 0.00 0.00
3:53 am 03:53 Cloudy with Rain 61 16.1 58 14.4 90 90 ESE 6 9 30.00 1016 3 5 0.05 1.27
4:06 am 04:06 Cloudy with Rain 61 16.1 58 14.4 90 90 E 6 9 29.98 1015 4 6 0.02 0.51
4:45 am 04:45 Cloudy with Rain 61 16.1 59 15 93 93 ESE 10 17 29.98 1015 3 5 0.09 2.29
4:53 am 04:53 Cloudy with Rain 61 16.1 59 15 93 93 ESE 10 17 29.98 1015 3 5 0.11 2.79
5:19 am 05:19 Cloudy with Light Rain 61 16.1 59 15 93 93 ESE 9 15 29.95 1014 5 8 0.06 1.52
5:53 am 05:53 Cloudy with Rain 62 16.7 59 15 90 90 ESE 13 20 29.94 1014 6 10 0.08 2.03
6:53 am 06:53 Cloudy with Light Rain 62 16.7 59 15 90 90 SE 17 28 29.93 1014 8 13 0.04 1.02
7:53 am 07:53 Cloudy with Heavy Rain 62 16.7 59 15 90 90 ESE 15 24 29.93 1014 4 6 0.11 2.79
8:49 am 08:49 Cloudy with Heavy Rain 63 17 59 15 88 88 ESE 14 22 29.92 1013 3 5 0.14 3.56
8:53 am 08:53 Cloudy with Heavy Rain 62 16.7 59 15 90 90 ESE 14 22 29.93 1013 3 5 0.15 3.81
9:36 am 09:36 Cloudy with Heavy Rain 62 16.7 59 15 90 90 ESE 18 30 29.88 1012 2 3 0.14 3.56
9:53 am 09:53 Cloudy with Heavy Rain 62 16.7 60 15.6 93 93 ESE 20 31 29.90 1013 3 4 0.22 5.59
10:08 am 10:08 Cloudy with Heavy Rain 62 16.7 60 15.6 93 93 ESE 15 24 29.89 1012 3 4 0.08 2.03
10:19 am 10:19 Cloudy with Heavy Rain 63 17.2 60 15.6 90 90 ESE 15 24 29.88 1012 3 4 0.13 3.30
10:33 am 10:33 Cloudy with Rain 63 17.2 60 15.6 90 90 ESE 15 24 29.87 1011 3 5 0.17 4.32
10:53 am 10:53 Cloudy with Rain 63 17.2 60 15.6 90 90 ESE 16 26 29.85 1011 4 6 0.21 5.33
11:51 am 11:51 Cloudy with Rain 64 18 61 16 88 88 ESE 14 22 29.80 1009 2 3 0.13 3.30
11:53 am 11:53 Cloudy with Light Rain 64 17.8 61 16.1 90 90 ESE 17 28 29.80 1009 3 4 0.13 3.30
12:00 pm 12:00 Cloudy with Light Rain 64 17.8 61 16.1 90 90 E 15 24 29.78 1008 7 11 0.01 0.13
12:28 pm 12:28 Cloudy with Light Rain 65 18.3 62 16.7 90 90 ESE 17 28 29.74 1007 7 11 0.01 0.13
12:43 pm 12:43 Cloudy with Light Rain 65 18.3 62 16.7 90 90 ESE 21 33 29.72 1006 8 13 0.01 0.25
12:53 pm 12:53 Cloudy with Light Rain 65 18.3 62 16.7 90 90 SE 15 24 29.73 1007 6 10 0.01 0.25
1:53 pm 13:53 Cloudy 66 18.9 63 17.2 90 90 SSE 13 20 29.72 1006 10 16 0.01 0.13
2:53 pm 14:53 Cloudy with Mist and Fog 67 19.4 64 17.8 90 90 SSE 12 19 29.70 1006 3 5 0.01 0.25
3:53 pm 15:53 Cloudy with Light Rain 68 20 65 18.3 90 90 S 12 19 29.68 1005 4 6 0.01 0.13
4:53 pm 16:53 Cloudy 69 20.6 64 17.8 84 84 SW 10 17 29.69 1005 10 16 0.01 0.13
5:00 pm 17:00 Cloudy 69 20.6 63 17.2 81 81 SSW 10 17 29.68 1005 10 16 0.00 0.00
5:32 pm 17:32 Mostly Cloudy 67 19.4 62 16.7 84 84 SW 10 17 29.69 1005 10 16 0.00 0.00
5:53 pm 17:53 Mostly Cloudy 66 18.9 60 15.6 81 81 SW 9 15 29.71 1006 10 16 0.00 0.00
6:03 pm 18:03 Partly Cloudy 66 18.9 60 15.6 81 81 SW 9 15 29.71 1006 10 16 0.00 0.00
6:53 pm 18:53 Partly Cloudy 65 18.3 59 15 81 81 WSW 14 22 29.74 1007 10 16 0.00 0.00
7:53 pm 19:53 Clear 63 17.2 54 12.2 72 72 WSW 20 31 29.76 1008 10 16 0.00 0.00
8:53 pm 20:53 Clear 60 15.6 48 8.9 64 64 W 18 30 29.78 1008 10 16 0.00 0.00
9:53 pm 21:53 Clear 57 13.9 47 8.3 69 69 W 9 15 29.80 1009 10 16 0.00 0.00
10:53 pm 22:53 Clear 56 13.3 45 7.2 66 66 WSW 12 19 29.81 1010 10 16 0.00 0.00
11:53 pm 23:53 Clear 55 12.8 46 7.8 72 72 WSW 8 13 29.83 1010 10 16 0.00 0.00

Powered by AerisWeather